Location: Madrid
(40.4167°N, 3.7036°W)
Time: 02:22:01
(UTC+00:00)

ISS - Pass Details

Date: 11 May 2026
Orbit: 414 x 424 km, 51.6° (Epoch: 15 May)

Event Time Altitude Azimuth Distance (km) Brightness Sun altitude
Rises 22:53:37 0° 303° (WNW) 2,353 0.8 -28.8°
Reaches altitude 10° 22:56:47 10° 336° (NNW) 1,491 0.0 -29.0°
Maximum altitude 22:58:13 12° 1° (N) 1,369 -0.4 -29.1°
Enters shadow 22:59:21 11° 22° (NNE) 1,450 -0.5 -29.2°
